User: anonymous   Login
Location: Unspecified
(0.0000°N, 0.0000°E)
Time: 01:52:47
(UTC+00:00)
Language:

TBA - TO BE ASSIGNED - Orbit

View from above orbital plane
View from above orbital plane
View from above satellite
View from above satellite

Ground track
Ground track

The orbit is defined by the following mean orbital elements,

1 67600U          26145.62193535 +.00000000 +00000-0 +63930-3 0 00008
2 67600  97.2853 210.7335 0000145 203.6328 156.4908 15.33448622    01
Epoch (UTC): 25 May 2026 14:55:35
Eccentricity: 0.0000145
inclination: 97.2853°
perigee height: 465 km
apogee height: 466 km
right ascension of ascending node: 210.7335°
argument of perigee: 203.6328°
revolutions per day: 15.33448622
mean anomaly at epoch: 156.4908°

The dashed part of the orbit path shows where the satellite is in the earth's shadow,  

DLR